QPF
0.01 0.00 0.00 0.00 0.00 0.00 0.00 0.00 0.00 0.00 0.00 0.00 0.00 0.01 0.01 0.01 0.02 0.01 0.01 0.01 0.02 0.02 0.01 0.01 0.01 0.01 0.01 0.00 0.00 0.01 0.01 0.01 0.01 0.01 0.02 0.03 0.03 0.03 0.03 0.05 0.05 0.04 0.04 0.04
0.00 0.00 0.00 0.00 0.00 0.00 0.00 0.00 0.00 0.00 0.00 0.00 0.00 0.00 0.00 0.00 0.01 0.01 0.01 0.01 0.02 0.02 0.01 0.02 0.01 0.01 0.00 0.01 0.01 0.01 0.01 0.01 0.02 0.04 0.07 0.06 0.08 0.06 0.05 0.06 0.07 0.06 0.05 0.05
0.00 0.00 0.00 0.00 0.00 0.00 0.00 0.00 0.00 0.00 0.00 0.00 0.01 0.00 0.00 0.00 0.00 0.00 0.00 0.01 0.02 0.02 0.01 0.01 0.01 0.01 0.01 0.02 0.02 0.01 0.02 0.01 0.01 0.05 0.08 0.09 0.10 0.08 0.07 0.06 0.09 0.06 0.05 0.05
0.00 0.00 0.00 0.00 0.00 0.00 0.00 0.00 0.00 0.00 0.00 0.00 0.00 0.00 0.00 0.00 0.00 0.00 0.00 0.00 0.01 0.01 0.01 0.01 0.01 0.01 0.03 0.03 0.02 0.01 0.01 0.00 0.00 0.01 0.02 0.04 0.09 0.07 0.04 0.05 0.12 0.12 0.06 0.04
0.00 0.00 0.00 0.00 0.00 0.00 0.00 0.00 0.00 0.00 0.00 0.00 0.00 0.00 0.00 0.00 0.00 0.00 0.00 0.00 0.00 0.01 0.01 0.01 0.01 0.01 0.02 0.02 0.02 0.01 0.01 0.01 0.01 0.01 0.01 0.01 0.02 0.02 0.02 0.02 0.07 0.11 0.06 0.03
0.00 0.00 0.00 0.00 0.00 0.00 0.00 0.00 0.00 0.01 0.01 0.00 0.00 0.00 0.00 0.00 0.00 0.00 0.00 0.01 0.00 0.01 0.01 0.01 0.01 0.01 0.02 0.02 0.01 0.01 0.02 0.03 0.01 0.01 0.01 0.01 0.01 0.01 0.02 0.02 0.03 0.03 0.03 0.03
0.00 0.00 0.00 0.00 0.00 0.00 0.00 0.00 0.00 0.01 0.00 0.00 0.00 0.00 0.00 0.00 0.00 0.00 0.00 0.01 0.01 0.01 0.01 0.01 0.01 0.02 0.02 0.02 0.01 0.02 0.04 0.04 0.03 0.02 0.01 0.01 0.01 0.02 0.02 0.03 0.02 0.01 0.01 0.02
0.00 0.00 0.00 0.00 0.00 0.00 0.00 0.00 0.00 0.00 0.00 0.00 0.00 0.00 0.00 0.00 0.00 0.00 0.00 0.00 0.00 0.01 0.01 0.01 0.01 0.02 0.02 0.02 0.01 0.01 0.02 0.02 0.02 0.03 0.02 0.02 0.03 0.02 0.03 0.02 0.01 0.01 0.01 0.02
0.00 0.00 0.00 0.00 0.00 0.00 0.00 0.00 0.00 0.00 0.00 0.00 0.00 0.00 0.00 0.00 0.00 0.00 0.00 0.01 0.00 0.00 0.01 0.01 0.02 0.02 0.02 0.02 0.01 0.01 0.01 0.02 0.02 0.03 0.03 0.03 0.03 0.02 0.02 0.02 0.01 0.01 0.01 0.02
0.00 0.00 0.00 0.00 0.00 0.00 0.00 0.00 0.00 0.00 0.00 0.00 0.00 0.00 0.00 0.00 0.00 0.00 0.00 0.00 0.00 0.01 0.01 0.01 0.02 0.02 0.02 0.02 0.02 0.01 0.02 0.03 0.02 0.03 0.02 0.02 0.02 0.01 0.02 0.02 0.02 0.01 0.01 0.01
0.00 0.00 0.00 0.00 0.00 0.00 0.00 0.00 0.00 0.00 0.00 0.00 0.00 0.00 0.00 0.00 0.00 0.00 0.01 0.01 0.01 0.01 0.01 0.01 0.02 0.02 0.01 0.01 0.02 0.03 0.06 0.05 0.02 0.02 0.02 0.01 0.01 0.01 0.01 0.01 0.01 0.01 0.01 0.01
0.00 0.00 0.00 0.00 0.00 0.00 0.00 0.00 0.00 0.00 0.00 0.00 0.00 0.00 0.00 0.00 0.00 0.01 0.01 0.01 0.01 0.01 0.01 0.01 0.01 0.02 0.01 0.01 0.03 0.06 0.07 0.04 0.02 0.01 0.01 0.01 0.00 0.00 0.00 0.00 0.00 0.01 0.01 0.01
0.00 0.00 0.00 0.00 0.00 0.00 0.00 0.00 0.00 0.00 0.00 0.00 0.00 0.00 0.00 0.00 0.00 0.01 0.01 0.01 0.01 0.00 0.00 0.01 0.01 0.01 0.01 0.03 0.06 0.06 0.03 0.02 0.02 0.02 0.01 0.01 0.00 0.00 0.00 0.01 0.01 0.01 0.01 0.01
0.00 0.00 0.00 0.00 0.00 0.00 0.00 0.00 0.00 0.00 0.00 0.00 0.00 0.00 0.00 0.00 0.00 0.00 0.00 0.00 0.01 0.00 0.00 0.00 0.00 0.01 0.02 0.03 0.04 0.04 0.03 0.02 0.02 0.02 0.02 0.01 0.01 0.01 0.02 0.02 0.01 0.01 0.01 0.01
0.00 0.00 0.00 0.00 0.00 0.00 0.00 0.00 0.00 0.00 0.00 0.00 0.00 0.00 0.00 0.00 0.00 0.00 0.00 0.00 0.01 0.01 0.01 0.01 0.01 0.01 0.02 0.02 0.02 0.02 0.02 0.02 0.02 0.01 0.01 0.01 0.02 0.04 0.05 0.03 0.02 0.02 0.02 0.02
0.00 0.00 0.00 0.00 0.00 0.00 0.00 0.00 0.00 0.00 0.00 0.00 0.00 0.00 0.00 0.00 0.00 0.00 0.00 0.00 0.01 0.02 0.02 0.02 0.02 0.02 0.02 0.02 0.02 0.02 0.03 0.02 0.02 0.02 0.03 0.03 0.04 0.05 0.05 0.04 0.04 0.05 0.04 0.04
0.00 0.00 0.00 0.00 0.00 0.00 0.00 0.00 0.00 0.00 0.00 0.00 0.00 0.00 0.00 0.00 0.00 0.01 0.01 0.01 0.01 0.02 0.03 0.05 0.04 0.04 0.03 0.03 0.02 0.03 0.03 0.02 0.02 0.03 0.04 0.05 0.05 0.05 0.05 0.05 0.04 0.05 0.06 0.05
0.00 0.00 0.00 0.00 0.00 0.00 0.00 0.00 0.00 0.00 0.00 0.00 0.00 0.00 0.00 0.00 0.01 0.02 0.02 0.02 0.02 0.02 0.02 0.05 0.06 0.04 0.04 0.03 0.03 0.03 0.03 0.02 0.03 0.04 0.05 0.04 0.05 0.05 0.05 0.05 0.04 0.05 0.06 0.06
0.00 0.00 0.00 0.00 0.01 0.00 0.00 0.00 0.00 0.01 0.00 0.00 0.00 0.00 0.01 0.01 0.02 0.01 0.01 0.02 0.02 0.02 0.02 0.03 0.04 0.05 0.05 0.03 0.03 0.03 0.02 0.03 0.03 0.04 0.04 0.04 0.04 0.04 0.03 0.03 0.04 0.04 0.04 0.05
0.00 0.00 0.00 0.01 0.01 0.01 0.00 0.01 0.01 0.02 0.02 0.01 0.01 0.01 0.02 0.02 0.02 0.01 0.02 0.02 0.03 0.03 0.03 0.03 0.02 0.03 0.05 0.04 0.03 0.03 0.03 0.04 0.03 0.03 0.03 0.03 0.03 0.03 0.03 0.04 0.04 0.04 0.04 0.04
0.00 0.00 0.01 0.00 0.00 0.00 0.00 0.02 0.03 0.02 0.02 0.03 0.03 0.03 0.03 0.02 0.02 0.03 0.03 0.02 0.02 0.02 0.02 0.02 0.01 0.02 0.03 0.04 0.03 0.03 0.04 0.03 0.02 0.02 0.03 0.02 0.02 0.03 0.04 0.05 0.05 0.06 0.06 0.07
0.00 0.00 0.01 0.01 0.01 0.01 0.01 0.04 0.05 0.05 0.04 0.04 0.03 0.03 0.03 0.03 0.02 0.02 0.02 0.02 0.02 0.02 0.02 0.01 0.01 0.02 0.02 0.03 0.02 0.03 0.02 0.02 0.02 0.02 0.02 0.02 0.03 0.03 0.04 0.05 0.07 0.08 0.09 0.09
0.00 0.00 0.01 0.01 0.01 0.01 0.02 0.04 0.05 0.06 0.05 0.04 0.03 0.03 0.03 0.03 0.02 0.02 0.03 0.02 0.03 0.02 0.01 0.01 0.01 0.01 0.02 0.02 0.02 0.02 0.02 0.01 0.02 0.02 0.02 0.02 0.03 0.04 0.04 0.06 0.08 0.10 0.09 0.09
0.01 0.01 0.01 0.01 0.03 0.03 0.03 0.03 0.03 0.04 0.04 0.03 0.04 0.03 0.03 0.03 0.02 0.03 0.04 0.03 0.03 0.01 0.01 0.01 0.01 0.01 0.01 0.01 0.01 0.01 0.01 0.01 0.01 0.01 0.02 0.02 0.02 0.03 0.03 0.04 0.06 0.07 0.08 0.08
0.02 0.01 0.01 0.02 0.02 0.02 0.02 0.02 0.02 0.03 0.03 0.03 0.03 0.04 0.04 0.03 0.03 0.03 0.04 0.03 0.02 0.01 0.01 0.02 0.02 0.02 0.02 0.02 0.01 0.01 0.01 0.01 0.01 0.02 0.02 0.02 0.03 0.04 0.05 0.06 0.07 0.07 0.07 0.08
0.01 0.02 0.02 0.02 0.01 0.02 0.03 0.02 0.03 0.03 0.03 0.03 0.04 0.04 0.04 0.03 0.02 0.03 0.04 0.04 0.04 0.05 0.06 0.07 0.04 0.03 0.03 0.03 0.02 0.01 0.02 0.02 0.02 0.02 0.03 0.03 0.04 0.05 0.07 0.08 0.08 0.08 0.08 0.08
MSLP
1006.40 1007.37 1008.14 1008.67 1008.98 1009.12 1009.11 1009.00 1008.83 1008.60 1008.33 1008.00 1007.62 1007.21 1006.79 1006.39 1006.06 1005.84 1005.74 1005.79 1005.96 1006.24 1006.60 1007.00 1007.43 1007.86 1008.31 1008.76 1009.24 1009.76 1010.30 1010.87 1011.44 1012.01 1012.53 1013.01 1013.42 1013.79 1014.11 1014.40 1014.68 1014.97 1015.28 1015.60
1006.85 1007.65 1008.25 1008.64 1008.87 1009.00 1009.05 1009.08 1009.07 1009.02 1008.89 1008.66 1008.31 1007.85 1007.32 1006.75 1006.24 1005.82 1005.56 1005.47 1005.55 1005.78 1006.11 1006.52 1006.95 1007.39 1007.84 1008.30 1008.78 1009.30 1009.86 1010.46 1011.07 1011.66 1012.21 1012.71 1013.12 1013.47 1013.77 1014.03 1014.29 1014.58 1014.89 1015.24
1007.18 1007.75 1008.14 1008.37 1008.51 1008.64 1008.78 1008.96 1009.16 1009.32 1009.38 1009.28 1009.00 1008.52 1007.89 1007.17 1006.46 1005.84 1005.37 1005.11 1005.05 1005.18 1005.45 1005.81 1006.22 1006.66 1007.11 1007.58 1008.08 1008.63 1009.23 1009.87 1010.53 1011.17 1011.77 1012.29 1012.72 1013.07 1013.35 1013.60 1013.85 1014.13 1014.45 1014.83
1007.51 1007.80 1007.94 1008.00 1008.06 1008.19 1008.44 1008.80 1009.22 1009.61 1009.87 1009.93 1009.72 1009.23 1008.51 1007.64 1006.72 1005.87 1005.18 1004.70 1004.46 1004.44 1004.60 1004.89 1005.26 1005.68 1006.12 1006.61 1007.14 1007.74 1008.39 1009.10 1009.83 1010.54 1011.20 1011.76 1012.22 1012.58 1012.86 1013.11 1013.36 1013.64 1013.98 1014.39
1007.95 1007.95 1007.85 1007.74 1007.72 1007.87 1008.22 1008.75 1009.38 1009.99 1010.44 1010.63 1010.49 1009.99 1009.17 1008.14 1007.01 1005.92 1004.99 1004.28 1003.83 1003.63 1003.66 1003.85 1004.15 1004.52 1004.96 1005.46 1006.03 1006.68 1007.41 1008.19 1009.01 1009.80 1010.52 1011.15 1011.65 1012.04 1012.33 1012.58 1012.83 1013.13 1013.48 1013.91
1008.62 1008.35 1008.02 1007.76 1007.67 1007.83 1008.27 1008.94 1009.74 1010.52 1011.12 1011.41 1011.30 1010.76 1009.84 1008.64 1007.31 1005.99 1004.82 1003.88 1003.22 1002.84 1002.72 1002.79 1003.01 1003.34 1003.76 1004.26 1004.86 1005.56 1006.36 1007.22 1008.11 1008.99 1009.79 1010.48 1011.03 1011.45 1011.77 1012.03 1012.29 1012.58 1012.94 1013.38
1009.55 1009.06 1008.55 1008.17 1008.02 1008.20 1008.69 1009.46 1010.36 1011.24 1011.91 1012.23 1012.10 1011.49 1010.46 1009.11 1007.60 1006.08 1004.70 1003.56 1002.72 1002.17 1001.90 1001.87 1002.00 1002.27 1002.65 1003.15 1003.76 1004.49 1005.33 1006.26 1007.22 1008.16 1009.03 1009.77 1010.38 1010.83 1011.17 1011.45 1011.70 1012.00 1012.35 1012.79
1010.73 1010.07 1009.45 1008.99 1008.80 1008.97 1009.48 1010.27 1011.19 1012.08 1012.73 1013.01 1012.81 1012.11 1010.97 1009.49 1007.84 1006.18 1004.65 1003.37 1002.39 1001.72 1001.33 1001.19 1001.24 1001.44 1001.78 1002.24 1002.84 1003.56 1004.42 1005.37 1006.36 1007.35 1008.26 1009.05 1009.69 1010.18 1010.54 1010.82 1011.07 1011.35 1011.70 1012.12
1012.03 1011.30 1010.62 1010.13 1009.91 1010.05 1010.53 1011.27 1012.13 1012.92 1013.48 1013.65 1013.34 1012.54 1011.30 1009.73 1008.00 1006.27 1004.67 1003.32 1002.27 1001.52 1001.06 1000.84 1000.81 1000.93 1001.20 1001.60 1002.13 1002.82 1003.64 1004.58 1005.57 1006.56 1007.49 1008.30 1008.97 1009.47 1009.85 1010.13 1010.38 1010.65 1010.97 1011.38
1013.31 1012.59 1011.92 1011.42 1011.19 1011.29 1011.68 1012.31 1013.02 1013.65 1014.03 1014.04 1013.60 1012.70 1011.39 1009.79 1008.06 1006.34 1004.76 1003.42 1002.37 1001.60 1001.10 1000.82 1000.71 1000.75 1000.92 1001.22 1001.67 1002.26 1003.01 1003.88 1004.83 1005.79 1006.70 1007.51 1008.18 1008.70 1009.09 1009.38 1009.62 1009.88 1010.19 1010.57
1014.39 1013.75 1013.14 1012.67 1012.43 1012.46 1012.74 1013.19 1013.69 1014.10 1014.28 1014.10 1013.53 1012.55 1011.22 1009.66 1008.00 1006.37 1004.89 1003.64 1002.65 1001.91 1001.40 1001.07 1000.89 1000.83 1000.89 1001.07 1001.39 1001.86 1002.50 1003.26 1004.12 1005.01 1005.88 1006.67 1007.33 1007.85 1008.25 1008.55 1008.80 1009.06 1009.36 1009.73
1015.18 1014.65 1014.13 1013.71 1013.46 1013.41 1013.54 1013.79 1014.06 1014.22 1014.17 1013.82 1013.13 1012.12 1010.82 1009.36 1007.84 1006.37 1005.05 1003.94 1003.05 1002.36 1001.87 1001.51 1001.25 1001.09 1001.02 1001.06 1001.24 1001.56 1002.06 1002.69 1003.44 1004.24 1005.04 1005.78 1006.42 1006.93 1007.34 1007.65 1007.93 1008.20 1008.51 1008.89
1015.66 1015.25 1014.83 1014.45 1014.18 1014.03 1014.00 1014.05 1014.08 1014.01 1013.75 1013.25 1012.49 1011.47 1010.26 1008.94 1007.60 1006.34 1005.22 1004.26 1003.49 1002.88 1002.40 1002.01 1001.69 1001.42 1001.23 1001.13 1001.16 1001.34 1001.68 1002.18 1002.80 1003.49 1004.20 1004.88 1005.48 1005.98 1006.39 1006.73 1007.03 1007.33 1007.67 1008.08
1015.87 1015.57 1015.22 1014.87 1014.57 1014.32 1014.14 1013.98 1013.80 1013.52 1013.10 1012.49 1011.69 1010.72 1009.63 1008.48 1007.34 1006.29 1005.36 1004.57 1003.91 1003.36 1002.90 1002.48 1002.09 1001.74 1001.44 1001.23 1001.13 1001.18 1001.39 1001.75 1002.24 1002.82 1003.43 1004.03 1004.57 1005.05 1005.45 1005.80 1006.13 1006.47 1006.85 1007.29
1015.95 1015.72 1015.40 1015.05 1014.69 1014.35 1014.02 1013.69 1013.32 1012.88 1012.33 1011.66 1010.86 1009.96 1008.99 1008.02 1007.08 1006.21 1005.45 1004.79 1004.22 1003.72 1003.26 1002.82 1002.39 1001.97 1001.60 1001.31 1001.13 1001.08 1001.19 1001.44 1001.82 1002.28 1002.78 1003.28 1003.75 1004.17 1004.55 1004.91 1005.25 1005.63 1006.05 1006.53
1016.03 1015.80 1015.48 1015.10 1014.67 1014.22 1013.75 1013.27 1012.76 1012.19 1011.56 1010.86 1010.08 1009.26 1008.41 1007.58 1006.80 1006.08 1005.44 1004.87 1004.35 1003.87 1003.41 1002.95 1002.50 1002.06 1001.67 1001.35 1001.14 1001.05 1001.10 1001.28 1001.55 1001.90 1002.29 1002.68 1003.06 1003.41 1003.74 1004.07 1004.42 1004.81 1005.26 1005.78
1016.21 1015.94 1015.57 1015.11 1014.59 1014.03 1013.45 1012.84 1012.21 1011.56 1010.87 1010.15 1009.40 1008.64 1007.88 1007.15 1006.46 1005.82 1005.24 1004.70 1004.20 1003.73 1003.26 1002.80 1002.36 1001.95 1001.59 1001.31 1001.13 1001.06 1001.10 1001.24 1001.44 1001.70 1001.97 1002.24 1002.51 1002.76 1003.02 1003.30 1003.62 1004.02 1004.48 1005.02
1016.55 1016.19 1015.72 1015.15 1014.53 1013.86 1013.16 1012.45 1011.74 1011.01 1010.27 1009.53 1008.79 1008.05 1007.32 1006.63 1005.96 1005.34 1004.75 1004.20 1003.68 1003.19 1002.72 1002.29 1001.90 1001.56 1001.30 1001.12 1001.03 1001.04 1001.12 1001.25 1001.42 1001.60 1001.77 1001.93 1002.07 1002.21 1002.37 1002.58 1002.87 1003.24 1003.70 1004.25
1017.01 1016.52 1015.92 1015.24 1014.49 1013.71 1012.91 1012.10 1011.30 1010.50 1009.71 1008.92 1008.14 1007.38 1006.63 1005.90 1005.20 1004.53 1003.89 1003.28 1002.72 1002.20 1001.75 1001.36 1001.06 1000.84 1000.72 1000.69 1000.75 1000.87 1001.04 1001.22 1001.38 1001.51 1001.60 1001.65 1001.68 1001.71 1001.78 1001.91 1002.15 1002.49 1002.94 1003.48
1017.46 1016.83 1016.10 1015.30 1014.44 1013.55 1012.64 1011.74 1010.84 1009.95 1009.08 1008.22 1007.37 1006.52 1005.69 1004.88 1004.08 1003.31 1002.58 1001.90 1001.29 1000.75 1000.32 1000.00 999.81 999.74 999.80 999.95 1000.19 1000.46 1000.75 1001.00 1001.19 1001.31 1001.35 1001.33 1001.27 1001.22 1001.21 1001.28 1001.47 1001.79 1002.22 1002.76
1017.77 1017.02 1016.17 1015.25 1014.28 1013.28 1012.27 1011.27 1010.27 1009.28 1008.30 1007.33 1006.36 1005.40 1004.44 1003.49 1002.57 1001.68 1000.85 1000.09 999.43 998.89 998.50 998.27 998.20 998.30 998.53 998.88 999.30 999.75 1000.17 1000.52 1000.77 1000.91 1000.95 1000.90 1000.80 1000.70 1000.65 1000.70 1000.86 1001.16 1001.59 1002.13
1017.83 1016.98 1016.04 1015.02 1013.96 1012.87 1011.76 1010.65 1009.54 1008.43 1007.31 1006.20 1005.09 1003.98 1002.87 1001.78 1000.72 999.72 998.79 997.96 997.27 996.75 996.41 996.27 996.33 996.58 996.99 997.52 998.11 998.72 999.27 999.74 1000.08 1000.28 1000.36 1000.34 1000.26 1000.17 1000.13 1000.18 1000.36 1000.67 1001.11 1001.66
1017.58 1016.66 1015.66 1014.58 1013.44 1012.27 1011.08 1009.86 1008.63 1007.39 1006.14 1004.88 1003.61 1002.35 1001.09 999.87 998.69 997.59 996.60 995.74 995.04 994.55 994.27 994.22 994.40 994.78 995.33 996.00 996.73 997.47 998.15 998.72 999.16 999.46 999.63 999.68 999.67 999.65 999.68 999.78 1000.01 1000.35 1000.82 1001.39
1017.03 1016.09 1015.06 1013.95 1012.77 1011.55 1010.28 1008.97 1007.63 1006.27 1004.88 1003.48 1002.07 1000.67 999.29 997.97 996.71 995.56 994.54 993.68 993.01 992.56 992.35 992.39 992.65 993.12 993.76 994.52 995.34 996.17 996.94 997.61 998.16 998.56 998.84 999.02 999.13 999.23 999.35 999.55 999.85 1000.25 1000.76 1001.34
1016.28 1015.36 1014.33 1013.22 1012.04 1010.78 1009.46 1008.09 1006.66 1005.19 1003.69 1002.17 1000.66 999.16 997.71 996.33 995.05 993.89 992.89 992.07 991.46 991.08 990.93 991.02 991.33 991.84 992.52 993.31 994.16 995.02 995.85 996.59 997.22 997.74 998.14 998.46 998.72 998.96 999.22 999.53 999.91 1000.38 1000.92 1001.52
1015.47 1014.60 1013.61 1012.54 1011.37 1010.11 1008.77 1007.36 1005.88 1004.34 1002.77 1001.18 999.60 998.06 996.59 995.22 993.96 992.86 991.93 991.19 990.65 990.33 990.24 990.36 990.68 991.18 991.83 992.59 993.41 994.25 995.07 995.84 996.54 997.15 997.68 998.13 998.54 998.93 999.33 999.75 1000.22 1000.73 1001.30 1001.90
Thickness
5809 5794 5784 5792 5798 5799 5795 5789 5785 5795 5810 5802 5795 5796 5802 5807 5806 5804 5803 5803 5803 5803 5806 5805 5803 5800 5797 5793 5790 5787 5783 5780 5777 5773 5769 5766 5764 5764 5762 5762 5760 5759 5757 5755
5790 5785 5800 5805 5804 5799 5794 5786 5786 5796 5808 5802 5793 5794 5803 5807 5808 5811 5809 5808 5807 5805 5804 5805 5803 5800 5797 5794 5792 5789 5785 5782 5779 5777 5773 5770 5768 5765 5764 5763 5761 5759 5758 5756
5785 5794 5807 5802 5797 5793 5790 5786 5789 5790 5796 5799 5792 5785 5794 5805 5810 5811 5812 5812 5811 5809 5806 5805 5803 5801 5798 5795 5793 5792 5787 5784 5781 5779 5775 5772 5768 5766 5763 5761 5760 5760 5758 5756
5787 5799 5802 5797 5794 5793 5781 5799 5797 5792 5778 5768 5779 5759 5785 5795 5800 5806 5810 5811 5813 5813 5811 5808 5805 5801 5800 5799 5797 5793 5789 5786 5783 5780 5776 5772 5767 5764 5763 5762 5761 5760 5758 5756
5784 5797 5796 5792 5797 5798 5793 5802 5795 5788 5774 5763 5769 5759 5774 5791 5791 5803 5812 5816 5818 5818 5816 5812 5810 5807 5804 5802 5798 5794 5790 5786 5784 5781 5778 5773 5770 5767 5765 5763 5761 5759 5757 5756
5789 5801 5802 5800 5805 5804 5800 5789 5778 5764 5756 5745 5761 5754 5763 5781 5796 5807 5815 5819 5821 5822 5820 5817 5814 5810 5806 5803 5799 5795 5789 5786 5785 5782 5778 5775 5771 5768 5764 5761 5759 5757 5756 5754
5776 5788 5799 5804 5793 5794 5787 5762 5738 5736 5726 5735 5759 5755 5766 5799 5809 5814 5817 5820 5823 5824 5821 5818 5813 5810 5806 5802 5799 5796 5791 5787 5785 5783 5779 5777 5773 5770 5766 5762 5759 5756 5754 5753
5754 5757 5785 5794 5788 5778 5774 5762 5734 5723 5721 5733 5750 5749 5778 5805 5813 5818 5820 5822 5823 5822 5822 5820 5817 5813 5809 5804 5800 5796 5792 5788 5786 5783 5780 5778 5774 5771 5767 5764 5761 5758 5755 5754
5747 5754 5785 5793 5795 5786 5767 5757 5759 5735 5730 5727 5736 5754 5780 5802 5806 5811 5814 5817 5818 5820 5821 5820 5818 5815 5810 5806 5802 5798 5794 5789 5786 5783 5780 5777 5774 5771 5768 5765 5762 5759 5756 5754
5758 5752 5772 5785 5788 5782 5776 5759 5738 5726 5714 5713 5730 5743 5758 5785 5794 5801 5805 5808 5813 5817 5818 5817 5815 5814 5811 5808 5804 5799 5795 5790 5787 5784 5780 5777 5774 5771 5768 5764 5761 5758 5756 5753
5758 5746 5755 5766 5766 5762 5758 5750 5736 5722 5722 5711 5712 5738 5780 5786 5794 5796 5801 5805 5809 5811 5813 5814 5813 5812 5809 5805 5801 5796 5792 5788 5785 5783 5779 5776 5773 5770 5767 5763 5760 5757 5754 5752
5748 5735 5730 5747 5764 5769 5763 5751 5736 5725 5718 5713 5713 5739 5791 5790 5793 5794 5797 5801 5805 5807 5809 5810 5809 5806 5803 5800 5798 5794 5790 5786 5784 5781 5777 5774 5771 5768 5764 5761 5758 5755 5752 5750
5741 5726 5715 5724 5737 5750 5748 5746 5738 5726 5714 5704 5709 5739 5784 5785 5787 5790 5793 5795 5798 5801 5802 5802 5801 5799 5797 5796 5794 5792 5788 5785 5781 5777 5773 5770 5767 5764 5760 5758 5755 5752 5749 5747
5740 5718 5714 5712 5720 5732 5737 5740 5735 5725 5710 5707 5718 5740 5764 5773 5777 5782 5787 5789 5791 5794 5795 5794 5794 5794 5793 5792 5791 5789 5786 5783 5778 5774 5770 5766 5764 5761 5757 5755 5752 5749 5746 5743
5727 5712 5718 5722 5729 5732 5735 5738 5735 5730 5725 5720 5732 5739 5758 5768 5772 5777 5781 5782 5784 5785 5787 5788 5788 5788 5787 5786 5785 5784 5782 5778 5774 5770 5766 5763 5760 5758 5755 5751 5748 5745 5742 5739
5709 5705 5710 5714 5724 5726 5727 5735 5736 5736 5734 5732 5737 5742 5762 5766 5767 5769 5772 5774 5775 5778 5780 5782 5782 5782 5782 5781 5780 5778 5776 5773 5769 5764 5761 5758 5755 5753 5750 5748 5744 5740 5737 5734
5693 5693 5690 5691 5706 5713 5708 5726 5730 5732 5736 5734 5731 5744 5754 5754 5757 5761 5765 5767 5768 5771 5774 5775 5775 5775 5776 5776 5776 5773 5771 5768 5765 5761 5757 5753 5750 5747 5746 5743 5739 5736 5732 5728
5683 5677 5671 5673 5688 5682 5710 5729 5732 5729 5730 5732 5735 5741 5746 5749 5753 5757 5760 5760 5762 5764 5766 5767 5767 5767 5767 5769 5769 5768 5765 5761 5759 5756 5752 5749 5745 5743 5741 5737 5734 5730 5726 5723
5680 5672 5661 5659 5665 5680 5704 5718 5720 5716 5718 5727 5726 5731 5736 5741 5743 5745 5752 5755 5757 5759 5760 5761 5761 5760 5761 5761 5761 5759 5757 5754 5751 5749 5746 5744 5742 5738 5735 5731 5728 5724 5720 5716
5666 5665 5656 5651 5657 5662 5692 5713 5719 5713 5704 5719 5719 5720 5724 5728 5722 5732 5743 5747 5749 5751 5752 5752 5753 5751 5750 5750 5750 5749 5748 5745 5743 5742 5740 5739 5736 5732 5729 5725 5721 5717 5714 5710
5652 5648 5646 5645 5650 5666 5691 5704 5708 5688 5693 5711 5712 5712 5715 5716 5720 5728 5733 5735 5738 5740 5742 5743 5742 5740 5740 5740 5739 5738 5738 5737 5736 5735 5733 5730 5728 5725 5722 5717 5714 5710 5705 5702
5642 5639 5637 5636 5640 5656 5689 5690 5685 5687 5698 5701 5704 5706 5707 5710 5716 5721 5723 5725 5727 5729 5731 5732 5730 5729 5729 5730 5729 5727 5727 5728 5727 5725 5723 5721 5719 5716 5713 5708 5705 5701 5697 5693
5637 5641 5640 5643 5651 5669 5677 5680 5685 5686 5688 5693 5695 5698 5701 5703 5707 5710 5712 5714 5716 5718 5720 5721 5721 5719 5719 5719 5720 5717 5717 5717 5716 5715 5713 5710 5708 5705 5703 5699 5695 5692 5688 5684
5636 5638 5635 5639 5653 5663 5670 5675 5679 5682 5684 5688 5690 5692 5695 5695 5697 5700 5701 5703 5705 5708 5709 5710 5709 5709 5708 5708 5709 5708 5708 5707 5705 5703 5702 5700 5697 5694 5692 5689 5686 5683 5679 5675
5630 5631 5629 5634 5647 5655 5663 5667 5671 5674 5678 5680 5682 5684 5686 5687 5688 5688 5690 5692 5695 5696 5697 5698 5698 5698 5698 5698 5698 5698 5698 5696 5693 5691 5690 5688 5687 5684 5681 5678 5676 5674 5671 5668
5624 5625 5625 5631 5642 5642 5650 5659 5663 5664 5667 5671 5673 5674 5677 5679 5679 5680 5680 5683 5684 5684 5684 5686 5687 5687 5688 5688 5688 5688 5688 5686 5684 5681 5680 5678 5676 5674 5671 5668 5664 5662 5660 5657